Time,TemperatureF,DewpointF,PressureIn,WindDirection,WindDirectionDegrees,WindSpeedMPH,WindSpeedGustMPH,Humidity,HourlyPrecipIn,Conditions,Clouds,dailyrainin,SoftwareType,DateUTC
2015-03-27 00:22:00,41.0,36.0,29.93,NNW,333,0.0,1.0,81,0.00,,,0.04,,2015-03-27 05:22:00,
2015-03-27 00:42:00,41.0,36.0,29.93,NNW,333,0.0,2.0,81,0.00,,,0.04,,2015-03-27 05:42:00,
2015-03-27 00:52:00,41.0,36.0,29.93,NNW,333,1.0,3.0,81,0.00,,,0.04,,2015-03-27 05:52:00,
2015-03-27 01:12:00,42.0,36.0,29.95,NNW,340,4.0,6.0,79,0.00,,,0.04,,2015-03-27 06:12:00,
2015-03-27 01:22:00,43.0,36.0,29.96,NNW,340,0.0,4.0,76,0.00,,,0.04,,2015-03-27 06:22:00,
2015-03-27 01:52:00,43.0,35.0,29.94,ENE,60,0.0,3.0,74,0.00,,,0.04,,2015-03-27 06:52:00,
2015-03-27 02:11:00,42.0,34.0,29.95,ENE,60,0.0,2.0,74,0.00,,,0.04,,2015-03-27 07:11:00,
2015-03-27 02:21:00,42.0,35.0,29.95,ENE,60,0.0,0.0,76,0.00,,,0.04,,2015-03-27 07:21:00,
2015-03-27 02:41:00,41.0,35.0,29.94,ENE,60,0.0,1.0,78,0.00,,,0.04,,2015-03-27 07:41:00,
2015-03-27 02:52:00,41.0,35.0,29.95,ENE,60,0.0,0.0,78,0.00,,,0.04,,2015-03-27 07:52:00,
2015-03-27 03:11:00,42.0,35.0,29.94,ENE,58,1.0,4.0,77,0.00,,,0.04,,2015-03-27 08:11:00,
2015-03-27 03:21:00,42.0,35.0,29.94,NE,51,2.0,6.0,76,0.00,,,0.04,,2015-03-27 08:21:00,
2015-03-27 03:51:00,41.0,35.0,29.95,NNE,26,2.0,5.0,79,0.00,,,0.04,,2015-03-27 08:51:00,
2015-03-27 04:11:00,41.0,35.0,29.95,NE,42,2.0,7.0,80,0.00,,,0.04,,2015-03-27 09:11:00,
2015-03-27 04:21:00,41.0,36.0,29.94,NE,34,2.0,6.0,82,0.00,,,0.03,,2015-03-27 09:21:00,
2015-03-27 04:42:00,41.0,36.0,29.95,NE,51,3.0,8.0,82,0.00,,,0.03,,2015-03-27 09:42:00,
2015-03-27 04:52:00,41.0,36.0,29.94,NE,53,4.0,7.0,83,0.00,,,0.03,,2015-03-27 09:52:00,
2015-03-27 05:12:00,40.0,35.0,29.94,ENE,58,2.0,7.0,83,0.00,,,0.03,,2015-03-27 10:12:00,
2015-03-27 05:22:00,40.0,36.0,29.93,NE,49,2.0,6.0,84,0.00,,,0.03,,2015-03-27 10:22:00,
2015-03-27 05:52:00,39.0,35.0,29.95,NE,42,2.0,7.0,86,0.00,,,0.03,,2015-03-27 10:52:00,
2015-03-27 06:22:00,40.0,36.0,29.96,NE,49,4.0,10.0,87,0.00,,,0.03,,2015-03-27 11:22:00,
2015-03-27 06:52:00,39.0,35.0,29.97,ENE,60,2.0,7.0,87,0.00,,,0.03,,2015-03-27 11:52:00,
2015-03-27 07:22:00,39.0,36.0,29.98,NE,56,3.0,8.0,88,0.00,,,0.03,,2015-03-27 12:22:00,
2015-03-27 07:52:00,39.0,36.0,29.98,NE,34,4.0,9.0,89,0.00,,,0.03,,2015-03-27 12:52:00,
2015-03-27 08:21:00,39.0,36.0,30.01,NNE,15,5.0,14.0,89,0.00,,,0.01,,2015-03-27 13:21:00,
2015-03-27 08:51:00,39.0,36.0,30.02,North,360,4.0,8.0,89,0.00,,,0.01,,2015-03-27 13:51:00,
2015-03-27 09:21:00,39.0,36.0,30.04,North,11,7.0,16.0,89,0.00,,,0.01,,2015-03-27 14:21:00,
2015-03-27 09:52:00,40.0,37.0,30.06,North,360,6.0,16.0,88,0.00,,,0.01,,2015-03-27 14:52:00,
2015-03-27 10:11:00,40.0,36.0,30.06,North,5,6.0,14.0,86,0.00,,,0.01,,2015-03-27 15:11:00,
2015-03-27 10:21:00,40.0,36.0,30.06,North,5,6.0,14.0,86,0.00,,,0.01,,2015-03-27 15:21:00,
2015-03-27 10:53:00,41.0,35.0,30.08,NNE,30,8.0,18.0,80,0.00,,,0.01,,2015-03-27 15:53:00,
2015-03-27 11:12:00,41.0,35.0,30.08,NNE,27,9.0,18.0,79,0.00,,,0.01,,2015-03-27 16:12:00,
2015-03-27 11:23:00,42.0,35.0,30.08,North,360,10.0,18.0,75,0.00,,,0.00,,2015-03-27 16:23:00,
2015-03-27 11:54:00,45.0,35.0,30.09,North,355,7.0,13.0,67,0.00,,,0.00,,2015-03-27 16:54:00,
2015-03-27 12:13:00,45.0,34.0,30.08,NNE,19,8.0,17.0,64,0.00,,,0.00,,2015-03-27 17:13:00,
2015-03-27 12:23:00,46.0,34.0,30.08,NNE,13,7.0,14.0,63,0.00,,,0.00,,2015-03-27 17:23:00,
2015-03-27 12:42:00,46.0,32.0,30.08,NNE,13,9.0,17.0,58,0.00,,,0.00,,2015-03-27 17:42:00,
2015-03-27 12:53:00,45.0,32.0,30.08,NNW,348,10.0,17.0,59,0.00,,,0.00,,2015-03-27 17:53:00,
2015-03-27 13:12:00,45.0,31.0,30.08,NNW,330,11.0,20.0,58,0.00,,,0.00,,2015-03-27 18:12:00,
2015-03-27 13:22:00,46.0,31.0,30.08,NE,52,10.0,18.0,55,0.00,,,0.00,,2015-03-27 18:22:00,
2015-03-27 13:52:00,47.0,30.0,30.07,North,5,5.0,19.0,52,0.00,,,0.00,,2015-03-27 18:52:00,
2015-03-27 14:12:00,47.0,30.0,30.07,North,350,7.0,17.0,51,0.00,,,0.00,,2015-03-27 19:12:00,
2015-03-27 14:21:00,48.0,32.0,30.07,NNE,13,5.0,16.0,53,0.00,,,0.00,,2015-03-27 19:21:00,
2015-03-27 14:41:00,48.0,31.0,30.07,North,360,9.0,17.0,51,0.00,,,0.00,,2015-03-27 19:41:00,
2015-03-27 14:52:00,48.0,29.0,30.06,North,360,9.0,12.0,48,0.00,,,0.00,,2015-03-27 19:52:00,
2015-03-27 15:11:00,48.0,29.0,30.05,North,349,6.0,20.0,48,0.00,,,0.00,,2015-03-27 20:11:00,
2015-03-27 15:21:00,49.0,27.0,30.05,North,5,8.0,17.0,42,0.00,,,0.00,,2015-03-27 20:21:00,
2015-03-27 15:52:00,49.0,26.0,30.04,North,355,8.0,17.0,41,0.00,,,0.00,,2015-03-27 20:52:00,
2015-03-27 16:11:00,49.0,25.0,30.04,NNE,32,8.0,15.0,39,0.00,,,0.00,,2015-03-27 21:11:00,
2015-03-27 16:21:00,49.0,26.0,30.03,NW,317,8.0,13.0,41,0.00,,,0.00,,2015-03-27 21:21:00,
2015-03-27 16:53:00,50.0,26.0,30.02,North,355,6.0,12.0,39,0.00,,,0.00,,2015-03-27 21:53:00,
2015-03-27 17:22:00,50.0,25.0,30.02,NNW,336,6.0,11.0,37,0.00,,,0.00,,2015-03-27 22:22:00,
2015-03-27 17:42:00,50.0,25.0,30.01,North,355,4.0,12.0,38,0.00,,,0.00,,2015-03-27 22:42:00,
2015-03-27 17:52:00,50.0,25.0,30.01,NNE,23,4.0,10.0,38,0.00,,,0.00,,2015-03-27 22:52:00,
2015-03-27 18:12:00,49.0,24.0,30.01,NW,317,5.0,10.0,37,0.00,,,0.00,,2015-03-27 23:12:00,